St. Petersburg Airport, FL

8:16 PM EDT on March 24, 2017 (GMT -0400)
Saint Petersburg-Clearwater International

Weather History for KPIE - July, 2013

Change the Weather History Date:

Friday, July 19, 2013

  Actual Average Record
Temperature  
Mean Temperature 80 °F -  
Max Temperature 87 °F 90 °F 95 °F (1970)
Min Temperature 73 °F 76 °F 71 °F (1973)
Cooling Degree Days 15    
Growing Degree Days 30 (Base 50)    
Moisture  
Dew Point 73 °F    
Average Humidity 84    
Maximum Humidity 96    
Minimum Humidity 67    
Precipitation  
Precipitation 0.32 in - - ()
Sea Level Pressure  
Sea Level Pressure 30.09 in    
Wind  
Wind Speed 7 mph (South)    
Max Wind Speed 20 mph    
Max Gust Speed 26 mph    
Visibility 9 miles    
Events Rain , Thunderstorm    
Averages and records for this station are not official NWS values.
T = Trace of Precipitation, MM = Missing Value Source: NWS Daily Summary

Daily Weather History Graph

Daily Weather History Graph

Search for Another Location

Airport or City:

Trip Planner

Search our weather history database for the weather conditions in past years. The results will help you decide how hot, cold, wet, or windy it might be!

Date:

Astronomy

Jul. 19, 2013 Rise Set
Actual Time 6:46 AM EDT 8:27 PM EDT
Civil Twilight 6:20 AM EDT 8:53 PM EDT
Nautical Twilight 5:49 AM EDT 9:24 PM EDT
Astronomical Twilight 5:16 AM EDT 9:57 PM EDT
Moon 5:29 PM EDT (7/19) 3:25 AM EDT (7/19)
Length of Visible Light 14h 32m
Length of Day
13h 40m
Waxing Gibbous, 86% of the Moon is Illuminated
Jul 19
Waxing Gibbous
Jul 22
Full
Jul 29
Last Quarter
Aug 6
New
Aug 14
First Quarter

Hourly Weather History & Observations

Time (EDT) Temp. Heat Index Dew Point Humidity Pressure Visibility Wind Dir Wind Speed Gust Speed Precip Events Conditions
12:53 AM 75.0 °F - 73.0 °F 94% 30.10 in 10.0 mi SE 5.8 mph - N/A   Clear
1:53 AM 75.0 °F - 73.0 °F 94% 30.09 in 10.0 mi SSE 4.6 mph - N/A   Clear
2:53 AM 75.0 °F - 73.0 °F 94% 30.09 in 10.0 mi Calm Calm - N/A   Partly Cloudy
3:53 AM 75.0 °F - 73.9 °F 96% 30.08 in 10.0 mi SE 3.5 mph - N/A   Clear
4:53 AM 75.0 °F - 73.0 °F 94% 30.08 in 10.0 mi ESE 6.9 mph - N/A   Mostly Cloudy
5:53 AM 75.0 °F - 72.0 °F 90% 30.08 in 10.0 mi SE 4.6 mph - N/A   Overcast
6:53 AM 75.0 °F - 72.0 °F 90% 30.08 in 10.0 mi ESE 5.8 mph - N/A   Scattered Clouds
7:53 AM 75.9 °F - 72.0 °F 87% 30.11 in 10.0 mi SE 6.9 mph - N/A   Overcast
8:53 AM 78.1 °F - 72.0 °F 81% 30.13 in 10.0 mi SE 5.8 mph - N/A   Mostly Cloudy
9:53 AM 80.1 °F 83.6 °F 71.1 °F 74% 30.13 in 10.0 mi SE 8.1 mph - N/A   Partly Cloudy
10:53 AM 80.1 °F 84.2 °F 73.0 °F 79% 30.13 in 10.0 mi SSE 6.9 mph - N/A   Overcast
11:53 AM 82.0 °F 87.9 °F 73.9 °F 76% 30.13 in 10.0 mi SE 8.1 mph - N/A   Mostly Cloudy
12:53 PM 86.0 °F 95.1 °F 75.0 °F 70% 30.11 in 10.0 mi SSE 9.2 mph - N/A   Clear
1:53 PM 87.1 °F 96.3 °F 75.0 °F 67% 30.10 in 10.0 mi South 8.1 mph - N/A   Mostly Cloudy
2:53 PM 86.0 °F 95.1 °F 75.0 °F 70% 30.07 in 10.0 mi SW 11.5 mph 20.7 mph N/A Thunderstorm Partly Cloudy
3:19 PM 80.6 °F 84.6 °F 71.6 °F 74% 30.08 in 10.0 mi West 12.7 mph - N/A Thunderstorm Thunderstorm
3:27 PM 80.6 °F 85.4 °F 73.4 °F 79% 30.08 in 10.0 mi West 10.4 mph - N/A Thunderstorm Thunderstorm
3:45 PM 82.4 °F 88.2 °F 73.4 °F 74% 30.08 in 10.0 mi WSW 10.4 mph - N/A Thunderstorm Partly Cloudy
3:53 PM 82.9 °F 89.4 °F 73.9 °F 74% 30.07 in 10.0 mi West 11.5 mph - N/A Thunderstorm Clear
4:06 PM 82.4 °F 88.2 °F 73.4 °F 74% 30.07 in 10.0 mi WSW 8.1 mph - N/A   Clear
4:53 PM 80.1 °F 84.2 °F 73.0 °F 79% 30.10 in 6.0 mi SW 19.6 mph 26.5 mph 0.01 in   Haze
4:55 PM 78.8 °F - 73.4 °F 83% 30.10 in 4.0 mi SW 16.1 mph 26.5 mph 0.04 in Rain , Thunderstorm Rain
4:57 PM 77.0 °F - 73.4 °F 89% 30.10 in 2.5 mi SW 15.0 mph 26.5 mph 0.06 in Rain , Thunderstorm Heavy Rain
5:06 PM 75.2 °F - 71.6 °F 89% 30.10 in 1.0 mi WSW 13.8 mph 21.9 mph 0.20 in Rain , Thunderstorm Heavy Thunderstorms and Rain
5:17 PM 73.4 °F - 71.6 °F 94% 30.08 in 2.0 mi WSW 5.8 mph - 0.27 in Rain , Thunderstorm Heavy Thunderstorms and Rain
5:33 PM 75.2 °F - 71.6 °F 89% 30.07 in 6.0 mi West 5.8 mph - 0.30 in Rain , Thunderstorm Light Rain
5:45 PM 75.2 °F - 73.4 °F 94% 30.08 in 10.0 mi WNW 5.8 mph - 0.30 in Rain Light Rain
5:53 PM 75.9 °F - 73.0 °F 91% 30.07 in 10.0 mi WNW 4.6 mph - 0.30 in   Mostly Cloudy
6:53 PM 77.0 °F - 73.0 °F 88% 30.06 in 10.0 mi Calm Calm - 0.01 in   Clear
7:53 PM 78.1 °F - 72.0 °F 81% 30.08 in 10.0 mi Calm Calm - 0.00 in   Clear
8:53 PM 75.9 °F - 72.0 °F 87% 30.10 in 10.0 mi East 8.1 mph - N/A   Scattered Clouds
9:53 PM 75.9 °F - 72.0 °F 87% 30.10 in 10.0 mi ESE 6.9 mph - N/A   Clear
10:53 PM 75.9 °F - 73.0 °F 91% 30.12 in 10.0 mi ESE 4.6 mph - N/A   Clear
11:53 PM 75.9 °F - 73.0 °F 91% 30.12 in 10.0 mi Calm Calm - N/A   Partly Cloudy